Location: Nairn
(57.5833°N, 3.8667°W)
Time: 01:49:12
(UTC+00:00)

Transit 2A - Pass Details

Date: 03 December 2020
Orbit: 598 x 960 km, 66.7° (Epoch: 20 January)

Event Time Altitude Azimuth Distance (km) Brightness Sun altitude
Rises 21:46:08 0° 297° (WNW) 3,488 10.1 -46.6°
Reaches altitude 10° 21:48:58 10° 306° (NW) 2,493 9.2 -46.9°
Enters shadow 21:49:13 11° 307° (NW) 2,408 9.1 -46.9°
